Michigan City, IN

12:49 PM CDT on September 24, 2017 (GMT -0500)
Michigan City Municipal

Weather History for KMGC - April, 2013

Change the Weather History Date:

Thursday, April 25, 2013

  Actual Average (KSBN) Record (KSBN)
Temperature  
Mean Temperature 42 °F -  
Max Temperature 50 °F 62 °F 87 °F (1990)
Min Temperature 33 °F 40 °F 23 °F (1919)
Degree Days  
Heating Degree Days 24    
Moisture  
Dew Point 31 °F    
Average Humidity 65    
Maximum Humidity 87    
Minimum Humidity 43    
Precipitation  
Precipitation 0.00 in - - ()
Sea Level Pressure  
Sea Level Pressure 30.21 in    
Wind  
Wind Speed 8 mph (WSW)    
Max Wind Speed 18 mph    
Max Gust Speed 26 mph    
Visibility 10 miles    
Events Rain    
Averages and records for this station are not official NWS values.
T = Trace of Precipitation, MM = Missing Value Source: NWS Daily Summary

Daily Weather History Graph

Daily Weather History Graph

Search for Another Location

Airport or City:

Trip Planner

Search our weather history database for the weather conditions in past years. The results will help you decide how hot, cold, wet, or windy it might be!

Date:

Astronomy

Apr. 25, 2013 Rise Set
Actual Time 5:51 AM CDT 7:39 PM CDT
Civil Twilight 5:22 AM CDT 8:09 PM CDT
Nautical Twilight 4:46 AM CDT 8:45 PM CDT
Astronomical Twilight 4:07 AM CDT 9:24 PM CDT
Moon 7:52 PM CDT (4/25) 5:34 AM CDT (4/25)
Length of Visible Light 14h 46m
Length of Day
13h 47m
Full, 100% of the Moon is Illuminated
Apr 25
Full
Apr 25
Full
May 2
Last Quarter
May 9
New
May 17
First Quarter

Hourly Weather History & Observations

Time (CDT) Temp. Windchill Dew Point Humidity Pressure Visibility Wind Dir Wind Speed Gust Speed Precip Events Conditions
12:15 AM 37.4 °F 31.4 °F 30.2 °F 75% 30.14 in 10.0 mi SSW 8.1 mph - N/A   Clear
12:35 AM 37.4 °F 31.4 °F 30.2 °F 75% 30.14 in 10.0 mi SSW 8.1 mph - N/A   Clear
12:55 AM 37.4 °F 30.8 °F 32.0 °F 81% 30.14 in 10.0 mi SSW 9.2 mph - N/A   Clear
1:15 AM 37.4 °F 32.1 °F 32.0 °F 81% 30.13 in 10.0 mi SSW 6.9 mph - N/A   Clear
1:35 AM 37.4 °F 32.1 °F 32.0 °F 81% 30.12 in 10.0 mi SSW 6.9 mph - N/A   Clear
1:55 AM 37.4 °F 30.8 °F 32.0 °F 81% 30.12 in 10.0 mi SSW 9.2 mph - N/A   Clear
2:15 AM 37.4 °F 30.3 °F 32.0 °F 81% 30.12 in 10.0 mi SSW 10.4 mph - N/A   Clear
2:35 AM 37.4 °F 30.8 °F 30.2 °F 75% 30.12 in 10.0 mi SSW 9.2 mph - N/A   Clear
2:55 AM 37.4 °F 30.3 °F 30.2 °F 75% 30.10 in 10.0 mi SSW 10.4 mph - N/A   Clear
3:15 AM 37.4 °F 30.8 °F 30.2 °F 75% 30.10 in 10.0 mi SSW 9.2 mph - N/A   Clear
3:35 AM 37.4 °F 30.8 °F 32.0 °F 81% 30.09 in 10.0 mi SSW 9.2 mph - N/A   Clear
3:55 AM 37.4 °F 30.8 °F 32.0 °F 81% 30.09 in 10.0 mi SSW 9.2 mph - N/A   Scattered Clouds
4:15 AM 37.4 °F 30.3 °F 32.0 °F 81% 30.10 in 10.0 mi SSW 10.4 mph - N/A   Mostly Cloudy
4:35 AM 37.4 °F 30.3 °F 32.0 °F 81% 30.10 in 10.0 mi SSW 10.4 mph - N/A   Overcast
4:55 AM 37.4 °F 30.3 °F 32.0 °F 81% 30.10 in 10.0 mi SSW 10.4 mph 16.1 mph N/A   Overcast
5:15 AM 37.4 °F 30.3 °F 32.0 °F 81% 30.10 in 10.0 mi SW 10.4 mph 17.3 mph N/A   Overcast
5:35 AM 39.2 °F 34.2 °F 32.0 °F 75% 30.10 in 10.0 mi SW 6.9 mph - N/A Rain Light Rain
5:55 AM 39.2 °F 33.6 °F 32.0 °F 75% 30.09 in 10.0 mi SW 8.1 mph - N/A   Overcast
6:15 AM 39.2 °F 33.6 °F 32.0 °F 75% 30.10 in 10.0 mi SSW 8.1 mph - N/A   Overcast
6:35 AM 39.2 °F 34.2 °F 32.0 °F 75% 30.10 in 10.0 mi SSW 6.9 mph - N/A   Overcast
6:55 AM 41.0 °F 35.2 °F 32.0 °F 70% 30.10 in 10.0 mi SSW 9.2 mph - N/A   Overcast
7:15 AM 41.0 °F 34.3 °F 32.0 °F 70% 30.11 in 10.0 mi SW 11.5 mph 16.1 mph N/A   Overcast
7:35 AM 42.8 °F 36.6 °F 32.0 °F 66% 30.11 in 10.0 mi SW 11.5 mph 17.3 mph N/A   Overcast
7:55 AM 42.8 °F 37.5 °F 32.0 °F 66% 30.12 in 10.0 mi SW 9.2 mph - N/A   Overcast
8:15 AM 42.8 °F 35.4 °F 33.8 °F 70% 30.12 in 10.0 mi WSW 15.0 mph - N/A   Mostly Cloudy
8:35 AM 42.8 °F 36.2 °F 33.8 °F 70% 30.13 in 10.0 mi West 12.7 mph 24.2 mph N/A   Overcast
8:55 AM 44.6 °F 36.9 °F 33.8 °F 66% 30.13 in 10.0 mi WSW 18.4 mph 23.0 mph N/A   Mostly Cloudy
9:15 AM 44.6 °F 38.1 °F 33.8 °F 66% 30.14 in 10.0 mi WNW 13.8 mph 26.5 mph N/A   Scattered Clouds
9:35 AM 46.4 °F 40.7 °F 32.0 °F 57% 30.16 in 10.0 mi West 12.7 mph 23.0 mph N/A   Scattered Clouds
9:55 AM 46.4 °F 40.4 °F 33.8 °F 62% 30.17 in 10.0 mi West 13.8 mph 23.0 mph N/A   Scattered Clouds
10:15 AM 46.4 °F 39.5 °F 32.0 °F 57% 30.18 in 10.0 mi WNW 17.3 mph 23.0 mph N/A   Scattered Clouds
10:35 AM 46.4 °F 41.1 °F 32.0 °F 57% 30.19 in 10.0 mi WNW 11.5 mph 20.7 mph N/A   Scattered Clouds
10:55 AM 46.4 °F 41.9 °F 32.0 °F 57% 30.21 in 10.0 mi NW 9.2 mph 19.6 mph N/A   Mostly Cloudy
11:55 AM 46.4 °F 40.7 °F 32.0 °F 57% 30.23 in 10.0 mi WNW 12.7 mph 18.4 mph N/A   Mostly Cloudy
12:15 PM 46.4 °F 41.5 °F 32.0 °F 57% 30.23 in 10.0 mi NW 10.4 mph 16.1 mph N/A   Overcast
12:35 PM 46.4 °F 42.4 °F 32.0 °F 57% 30.24 in 10.0 mi WNW 8.1 mph - N/A   Scattered Clouds
12:55 PM 48.2 °F - 32.0 °F 54% 30.24 in 10.0 mi West 9.2 mph - N/A   Scattered Clouds
1:15 PM 46.4 °F 41.9 °F 30.2 °F 53% 30.25 in 10.0 mi WNW 9.2 mph - N/A   Clear
1:35 PM 48.2 °F - 32.0 °F 54% 30.26 in 10.0 mi NW 10.4 mph 16.1 mph N/A   Scattered Clouds
1:55 PM 46.4 °F 42.9 °F 30.2 °F 53% 30.26 in 10.0 mi WNW 6.9 mph 18.4 mph N/A   Clear
2:15 PM 48.2 °F - 32.0 °F 54% 30.27 in 10.0 mi West 11.5 mph 16.1 mph N/A   Scattered Clouds
2:35 PM 50.0 °F - 32.0 °F 50% 30.27 in 10.0 mi West 10.4 mph 18.4 mph N/A   Scattered Clouds
2:55 PM 50.0 °F - 30.2 °F 47% 30.27 in 10.0 mi West 9.2 mph 17.3 mph N/A   Scattered Clouds
3:15 PM 50.0 °F - 30.2 °F 47% 30.27 in 10.0 mi West 10.4 mph 17.3 mph N/A   Clear
3:35 PM 50.0 °F - 30.2 °F 47% 30.27 in 10.0 mi West 11.5 mph - N/A   Scattered Clouds
3:55 PM 50.0 °F - 30.2 °F 47% 30.29 in 10.0 mi WNW 11.5 mph 19.6 mph N/A   Scattered Clouds
4:15 PM 50.0 °F - 30.2 °F 47% 30.28 in 10.0 mi West 8.1 mph 17.3 mph N/A   Scattered Clouds
4:35 PM 50.0 °F - 30.2 °F 47% 30.27 in 10.0 mi West 9.2 mph 17.3 mph N/A   Clear
4:55 PM 48.2 °F - 28.4 °F 46% 30.28 in 10.0 mi West 8.1 mph 17.3 mph N/A   Scattered Clouds
5:15 PM 50.0 °F - 28.4 °F 43% 30.29 in 10.0 mi WNW 6.9 mph - N/A   Scattered Clouds
5:35 PM 48.2 °F - 26.6 °F 43% 30.29 in 10.0 mi WNW 8.1 mph - N/A   Clear
5:55 PM 48.2 °F - 26.6 °F 43% 30.29 in 10.0 mi West 6.9 mph - N/A   Clear
6:15 PM 48.2 °F - 26.6 °F 43% 30.29 in 10.0 mi WNW 6.9 mph - N/A   Clear
6:35 PM 46.4 °F 43.5 °F 24.8 °F 43% 30.30 in 10.0 mi West 5.8 mph - N/A   Clear
6:55 PM 46.4 °F 45.2 °F 24.8 °F 43% 30.30 in 10.0 mi WNW 3.5 mph - N/A   Clear
7:15 PM 44.6 °F - 24.8 °F 46% 30.30 in 10.0 mi Calm Calm - N/A   Clear
7:35 PM 44.6 °F - 24.8 °F 46% 30.30 in 10.0 mi Calm Calm - N/A   Clear
7:55 PM 42.8 °F - 26.6 °F 53% 30.31 in 10.0 mi Calm Calm - N/A   Clear
8:15 PM 42.8 °F - 26.6 °F 53% 30.32 in 10.0 mi Calm Calm - N/A   Clear
8:35 PM 37.4 °F - 28.4 °F 70% 30.32 in 10.0 mi Calm Calm - N/A   Clear
8:55 PM 39.2 °F - 28.4 °F 65% 30.32 in 10.0 mi Calm Calm - N/A   Clear
9:15 PM 35.6 °F - 30.2 °F 81% 30.33 in 10.0 mi Calm Calm - N/A   Clear
9:35 PM 35.6 °F - 30.2 °F 81% 30.34 in 10.0 mi Calm Calm - N/A   Clear
9:55 PM 37.4 °F - 30.2 °F 75% 30.34 in 10.0 mi Calm Calm - N/A   Clear
10:15 PM 33.8 °F - 30.2 °F 87% 30.34 in 10.0 mi Calm Calm - N/A   Clear
10:35 PM 33.8 °F 30.8 °F 30.2 °F 87% 30.34 in 10.0 mi SE 3.5 mph - N/A   Clear
10:55 PM 33.8 °F - 30.2 °F 87% 30.35 in 10.0 mi Calm Calm - N/A   Clear
11:15 PM 35.6 °F - 30.2 °F 81% 30.35 in 10.0 mi Calm Calm - N/A   Clear
11:35 PM 33.8 °F - 30.2 °F 87% 30.35 in 10.0 mi Calm Calm - N/A   Clear
11:55 PM 33.8 °F - 30.2 °F 87% 30.35 in 10.0 mi Calm Calm - N/A   Clear